Location: Unspecified
(0.0000°N, 0.0000°E)
Time: 03:55:38
(UTC+00:00)

NAPA-2 - Visible Passes

Search period start: 14 February 2026 00:00
Search period end: 24 February 2026 00:00
Orbit: 366 x 371 km, 97.7° (Epoch: 11 February)

Date Brightness Start Highest point End Pass type
(mag) Time Alt. Az. Time Alt. Az. Time Alt. Az.
15 Feb ? 05:01:02 10° E 05:02:01 11° ENE 05:03:01 10° ENE visible
16 Feb ? 05:29:53 10° SSE 05:32:39 43° E 05:35:25 10° N visible
18 Feb ? 05:01:49 10° E 05:02:42 11° ENE 05:03:35 10° ENE visible
19 Feb ? 05:30:09 10° SSE 05:32:54 41° E 05:35:39 10° N visible
21 Feb ? 05:01:48 10° E 05:02:07 10° ENE 05:02:25 10° ENE visible
22 Feb ? 05:29:11 10° SSE 05:31:53 36° ENE 05:34:34 10° N visible
